Location: Shepherdstown, WV
(39.4326°N, 77.8042°W)
Time: 06:29:41
(UTC-04:00)

Transit 2A Rocket - Visible Passes

Search period start: 03 August 2021 00:00
Search period end: 13 August 2021 00:00
Orbit: 589 x 913 km, 66.7° (Epoch: 02 August)

Date Brightness Start Highest point End Pass type
(mag) Time Alt. Az. Time Alt. Az. Time Alt. Az.
03 Aug 6.3 00:31:36 10° NW 00:35:25 36° WNW 00:35:25 36° WNW visible
03 Aug 6.9 22:07:15 10° N 22:11:19 20° NE 22:13:55 15° E visible
03 Aug 5.4 23:48:45 10° NNW 23:53:48 67° WNW 23:53:48 67° WNW visible
04 Aug 7.3 21:25:39 10° NNE 21:28:14 13° NE 21:30:54 10° ENE visible
04 Aug 5.2 23:06:08 10° NNW 23:11:46 68° ENE 23:12:13 66° E visible
05 Aug 7.4 00:50:06 10° WNW 00:52:06 16° W 00:52:06 16° W visible
05 Aug 5.9 22:23:42 10° NNW 22:29:01 42° NE 22:30:40 34° E visible
06 Aug 6.6 00:06:32 10° NW 00:10:34 30° W 00:10:34 30° W visible
06 Aug 6.5 21:41:27 10° N 21:46:10 27° NE 21:49:11 18° E visible
06 Aug 5.6 23:23:29 10° NW 23:29:01 53° WSW 23:29:04 53° WSW visible
07 Aug 7.0 20:59:30 10° N 21:03:10 18° NE 21:07:00 10° E visible
07 Aug 5.2 22:40:43 10° NNW 22:46:26 88° WSW 22:47:38 59° SSE visible
08 Aug 7.6 00:26:01 10° W 00:27:32 12° W 00:27:32 12° W visible
08 Aug 5.5 21:58:10 10° NNW 22:03:45 57° ENE 22:06:15 33° ESE visible
08 Aug 6.9 23:41:39 10° WNW 23:46:01 22° WSW 23:46:09 22° WSW visible
09 Aug 6.1 21:15:47 10° NNW 21:20:58 36° NE 21:24:54 17° ESE visible
09 Aug 6.2 22:58:19 10° NW 23:03:35 38° WSW 23:04:49 34° SW visible
10 Aug 6.7 20:33:37 10° N 20:38:03 23° NE 20:42:41 10° E visible
10 Aug 5.5 22:15:23 10° NW 22:21:04 64° WSW 22:23:32 35° S visible
11 Aug 5.2 21:32:42 10° NNW 21:38:26 79° ENE 21:42:20 23° SE visible
11 Aug 7.4 23:17:08 10° WNW 23:20:28 16° WSW 23:22:15 14° SW visible
12 Aug 5.7 20:50:12 10° NNW 20:55:43 48° ENE 21:01:11 12° SE visible
12 Aug 6.9 22:33:18 10° NW 22:38:06 27° WSW 22:41:07 18° SSW visible
